This is the latest recevied weather packets stored in our database for station/object KU4DD. If no packets are shown the sender has not sent any weather packets the latest 10 day(s).
| Time | Temp. | Humidity | Pressure | Rain* | Wind** | Luminosity | Snow |
|---|---|---|---|---|---|---|---|
| 1777582829 | 22.22° C | 50% | 1006.4 hPa | 0 mm | - | - | - |
| 1777582197 | 21.67° C | 51% | 1006.4 hPa | 0 mm | - | - | - |
| 1777577803 | 21.67° C | 51% | 1006.8 hPa | 0 mm | - | - | - |
| 1777577480 | 22.22° C | 50% | 1006.8 hPa | 0 mm | - | - | - |
| 1777569651 | 21.11° C | 53% | 1007.1 hPa | 0 mm | - | - | - |
| 1777569014 | 21.11° C | 54% | 1007.1 hPa | 0 mm | - | - | - |
| 1777565251 | 21.11° C | 54% | 1008.1 hPa | 0 mm | - | - | - |
| 1777564620 | 21.11° C | 55% | 1007.8 hPa | 0 mm | - | - | - |
| 1777564295 | 21.11° C | 53% | 1008.1 hPa | 0 mm | - | - | - |
| 1777558653 | 21.11° C | 55% | 1008.1 hPa | 0 mm | - | - | - |
| 1777557388 | 21.67° C | 53% | 1007.8 hPa | 0 mm | - | - | - |
| 1777556430 | 21.67° C | 54% | 1006.8 hPa | 0 mm | - | - | - |
| 1777553915 | 21.67° C | 55% | 1006.4 hPa | 0 mm | - | - | - |
| 1777552029 | 21.67° C | 57% | 1006.8 hPa | 0 mm | - | - | - |
| 1777545139 | 22.22° C | 61% | 1006.4 hPa | 0 mm | - | - | - |
| 1777541998 | 22.22° C | 61% | 1006.1 hPa | 0 mm | - | - | - |
| 1777540425 | 22.22° C | 61% | 1006.1 hPa | 0 mm | - | - | - |
| 1777538850 | 22.22° C | 61% | 1005.8 hPa | 0 mm | - | - | - |
| 1777538212 | 22.22° C | 60% | 1005.8 hPa | 0 mm | - | - | - |
| 1777537887 | 22.22° C | 61% | 1005.8 hPa | 0 mm | - | - | - |
| 1777537253 | 22.22° C | 61% | 1005.8 hPa | 0 mm | - | - | - |
| 1777527713 | 22.22° C | 58% | 1006.4 hPa | 0 mm | - | - | - |
| 1777525834 | 22.22° C | 57% | 1006.8 hPa | 0 mm | - | - | - |
| 1777524897 | 22.22° C | 57% | 1006.4 hPa | 0 mm | - | - | - |
| 1777524273 | 22.22° C | 57% | 1007.1 hPa | 0 mm | - | - | - |
* Rain latest hour (hover to see other rain measurements)
** Current wind speed in m/s (hover to see current wind gust speed)